Change the Weather History Date:

Saturday, May 31, 2014

  Actual Average Record
Temperature  
Mean Temperature 62 °F 63 °F  
Max Temperature 72 °F 72 °F 92 °F (1987)
Min Temperature 51 °F 55 °F 41 °F (1990)
Degree Days  
Heating Degree Days 3 3  
Month to date heating degree days 127 219  
Since 1 July heating degree days 5457 5390  
Cooling Degree Days 0 2  
Month to date cooling degree days 29 22  
Year to date cooling degree days 29 24  
Growing Degree Days 12 (Base 50)    
Moisture  
Dew Point 48 °F    
Average Humidity 63    
Maximum Humidity 86    
Minimum Humidity 40    
Precipitation  
Precipitation T in 0.14 in 1.94 in (1984)
Month to date precipitation 2.66 3.78  
Year to date precipitation 21.74 19.46  
Snow  
Snow 0.00 in 0.00 in - ()
Month to date snowfall 0.0 0.0  
Since 1 July snowfall 63.7 24.8  
Snow Depth 0.00 in    
Sea Level Pressure  
Sea Level Pressure 30.15 in    
Wind  
Wind Speed 10 mph (NNE)    
Max Wind Speed 22 mph    
Max Gust Speed 29 mph    
Visibility 10 miles    
Events      
T = Trace of Precipitation, MM = Missing Value Source: NWS Daily Summary

Daily Weather History Graph

Daily Weather History Graph

Search for Another Location

Airport or City:

Trip Planner

Search our weather history database for the weather conditions in past years. The results will help you decide how hot, cold, wet, or windy it might be!

Date:

Astronomy

May. 31, 2014 Rise Set
Actual Time 5:23 AM EDT 8:16 PM EDT
Civil Twilight 4:51 AM EDT 8:49 PM EDT
Nautical Twilight 4:09 AM EDT 9:30 PM EDT
Astronomical Twilight 3:22 AM EDT 10:18 PM EDT
Moon 7:58 AM EDT (5/31) 10:32 PM EDT (5/31)
Length of Visible Light 15h 58m
Length of Day
14h 53m
Waxing Crescent, 8% of the Moon is Illuminated
May 31
Waxing Crescent
Jun 5
First Quarter
Jun 13
Full
Jun 19
Last Quarter
Jun 27
New

Hourly Weather History & Observations

Time (EDT) Temp. Dew Point Humidity Pressure Visibility Wind Dir Wind Speed Gust Speed Precip Events Conditions
12:56 AM 57.0 °F 52.0 °F 83% 30.04 in 10.0 mi NNW 4.6 mph - N/A   Clear
1:56 AM 55.9 °F 52.0 °F 87% 30.04 in 10.0 mi NNW 9.2 mph - N/A   Clear
2:56 AM 55.9 °F 51.1 °F 84% 30.04 in 10.0 mi NNW 8.1 mph - N/A   Clear
3:56 AM 55.9 °F 51.1 °F 84% 30.04 in 10.0 mi NNW 9.2 mph - N/A   Clear
4:56 AM 55.9 °F 50.0 °F 80% 30.05 in 10.0 mi NNW 10.4 mph - N/A   Clear
5:56 AM 55.9 °F 50.0 °F 80% 30.07 in 10.0 mi NW 6.9 mph - N/A   Partly Cloudy
6:56 AM 57.9 °F 51.1 °F 78% 30.09 in 10.0 mi North 15.0 mph - N/A   Scattered Clouds
7:56 AM 61.0 °F 48.9 °F 64% 30.11 in 10.0 mi North 10.4 mph 23.0 mph N/A   Scattered Clouds
8:56 AM 62.1 °F 48.0 °F 60% 30.11 in 10.0 mi North 16.1 mph 20.7 mph N/A   Scattered Clouds
9:56 AM 64.9 °F 48.0 °F 54% 30.11 in 10.0 mi NNE 20.7 mph 28.8 mph N/A   Scattered Clouds
10:56 AM 64.9 °F 48.0 °F 54% 30.14 in 10.0 mi NE 17.3 mph 25.3 mph N/A   Mostly Cloudy
11:56 AM 68.0 °F 48.9 °F 50% 30.14 in 10.0 mi NNE 12.7 mph 25.3 mph N/A   Mostly Cloudy
12:56 PM 69.1 °F 48.0 °F 47% 30.15 in 10.0 mi NE 18.4 mph 25.3 mph N/A   Mostly Cloudy
1:56 PM 70.0 °F 48.9 °F 47% 30.16 in 10.0 mi NE 11.5 mph 23.0 mph N/A   Mostly Cloudy
2:56 PM 69.1 °F 50.0 °F 51% 30.17 in 10.0 mi NE 12.7 mph 18.4 mph 0.00 in   Scattered Clouds
3:56 PM 70.0 °F 46.0 °F 42% 30.17 in 10.0 mi NE 13.8 mph 21.9 mph N/A   Scattered Clouds
4:56 PM 69.1 °F 45.0 °F 42% 30.18 in 10.0 mi NNE 13.8 mph - N/A   Mostly Cloudy
5:56 PM 63.0 °F 48.0 °F 58% 30.19 in 10.0 mi SSE 9.2 mph - N/A   Mostly Cloudy
6:56 PM 61.0 °F 46.0 °F 58% 30.22 in 10.0 mi SE 9.2 mph - N/A   Scattered Clouds
7:56 PM 60.1 °F 42.1 °F 51% 30.24 in 10.0 mi SSE 8.1 mph - N/A   Mostly Cloudy
8:56 PM 59.0 °F 42.1 °F 53% 30.26 in 10.0 mi ESE 6.9 mph - N/A   Mostly Cloudy
9:56 PM 57.0 °F 44.1 °F 62% 30.27 in 10.0 mi East 3.5 mph - N/A   Scattered Clouds
10:56 PM 54.0 °F 44.1 °F 69% 30.28 in 10.0 mi Calm Calm - N/A   Partly Cloudy
11:56 PM 52.0 °F 44.1 °F 74% 30.27 in 10.0 mi NNW 3.5 mph - N/A   Partly Cloudy